This is the latest recevied weather packets stored in our database for station/object N7NIP. If no packets are shown the sender has not sent any weather packets the latest 10 day(s).
| Time | Temp. | Humidity | Pressure | Rain* | Wind** | Luminosity | Snow |
|---|---|---|---|---|---|---|---|
| 1777699026 | 11.67° C | 87% | 1030 hPa | 0 mm | - | 0 W/m² | - |
| 1777698724 | 11.67° C | 87% | 1029.8 hPa | 0 mm | - | 0 W/m² | - |
| 1777698421 | 11.67° C | 86% | 1029.8 hPa | 0 mm | - | 0 W/m² | - |
| 1777698117 | 12.22° C | 85% | 1030.1 hPa | 0 mm | - | 0 W/m² | - |
| 1777697814 | 12.22° C | 85% | 1030.3 hPa | 0 mm | - | 0 W/m² | - |
| 1777697511 | 11.67° C | 89% | 1030.1 hPa | 0 mm | - | 0 W/m² | - |
| 1777697208 | 11.67° C | 87% | 1029.7 hPa | 0 mm | - | 0 W/m² | - |
| 1777696903 | 12.22° C | 88% | 1030.1 hPa | 0 mm | - | 0 W/m² | - |
| 1777696602 | 12.22° C | 87% | 1029.8 hPa | 0 mm | - | 0 W/m² | - |
| 1777696299 | 12.22° C | 87% | 1029.7 hPa | 0 mm | - | 0 W/m² | - |
| 1777695998 | 12.22° C | 86% | 1030 hPa | 0 mm | - | 0 W/m² | - |
| 1777695695 | 12.78° C | 86% | 1030 hPa | 0 mm | - | 0 W/m² | - |
| 1777695393 | 12.78° C | 84% | 1029.7 hPa | 0 mm | - | 0 W/m² | - |
| 1777695090 | 12.78° C | 85% | 1029.7 hPa | 0 mm | - | 0 W/m² | - |
| 1777694786 | 12.78° C | 84% | 1029.4 hPa | 0 mm | - | 0 W/m² | - |
| 1777694484 | 13.33° C | 83% | 1029.7 hPa | 0 mm | - | 0 W/m² | - |
| 1777694180 | 13.33° C | 82% | 1029.8 hPa | 0 mm | - | 0 W/m² | - |
| 1777693877 | 13.89° C | 80% | 1029.7 hPa | 0 mm | - | 0 W/m² | - |
| 1777693575 | 13.89° C | 78% | 1029.6 hPa | 0 mm | - | 0 W/m² | - |
| 1777693273 | 14.44° C | 77% | 1029.5 hPa | 0 mm | - | 0 W/m² | - |
| 1777692971 | 14.44° C | 76% | 1029.4 hPa | 0 mm | - | 0 W/m² | - |
| 1777692668 | 15° C | 73% | 1029.2 hPa | 0 mm | - | 1 W/m² | - |
| 1777692364 | 15° C | 71% | 1029.8 hPa | 0 mm | - | 0 W/m² | - |
| 1777692060 | 15° C | 70% | 1029.7 hPa | 0 mm | - | 1 W/m² | - |
| 1777691759 | 15° C | 71% | 1029.6 hPa | 0 mm | - | 2 W/m² | - |
* Rain latest hour (hover to see other rain measurements)
** Current wind speed in m/s (hover to see current wind gust speed)